• In Portugal
  • List of Countries
  • For 7 days
  • Water Temperature
  • Satellite Maps
  • Weather Map
  • Weather Widgets
  • user-avatar
    Login

    Hourly Weather Francistown

    Today, 17 July, Tuesday

    Time Temperature Precipitation Wind Pressure Humidity
    00:00 +8°C° 0 mm 4 mps 686 mmHg 77%
    01:00 +8°C° 0 mm 4 mps 686 mmHg 80%
    02:00 +7°C° 0 mm 4 mps 685 mmHg 83%
    03:00 +7°C° 0 mm 4 mps 685 mmHg 85%
    04:00 +7°C° 0 mm 4 mps 685 mmHg 88%
    05:00 +7°C° 0 mm 5 mps 685 mmHg 90%
    06:00 +7°C° 0 mm 5 mps 685 mmHg 87%
    07:00 +8°C° 0 mm 6 mps 686 mmHg 84%
    08:00 +9°C° 0 mm 7 mps 686 mmHg 80%
    09:00 +9°C° 0 mm 7 mps 686 mmHg 77%
    10:00 +10°C° 0 mm 7 mps 686 mmHg 74%
    11:00 +10°C° 0 mm 7 mps 686 mmHg 70%
    12:00 +11°C° 0 mm 7 mps 686 mmHg 66%
    13:00 +12°C° 0 mm 7 mps 686 mmHg 61%
    14:00 +14°C° 0 mm 7 mps 685 mmHg 56%
    15:00 +14°C° 0 mm 6 mps 685 mmHg 56%
    16:00 +14°C° 0 mm 6 mps 685 mmHg 55%
    17:00 +14°C° 0 mm 6 mps 684 mmHg 55%
    18:00 +13°C° 0 mm 5 mps 685 mmHg 60%
    19:00 +12°C° 0 mm 4 mps 685 mmHg 65%
    20:00 +11°C° 0 mm 3 mps 685 mmHg 70%
    21:00 +10°C° 0 mm 3 mps 685 mmHg 72%
    22:00 +10°C° 0 mm 3 mps 685 mmHg 74%
    23:00 +10°C° 0 mm 3 mps 685 mmHg 76%

    Tomorrow, 18 July, Wednesday

    Time Temperature Precipitation Wind Pressure Humidity
    00:00 +8°C° 0 mm 4 mps 685 mmHg 79%
    01:00 +8°C° 0 mm 4 mps 685 mmHg 83%
    02:00 +8°C° 0 mm 4 mps 685 mmHg 86%
    03:00 +8°C° 0 mm 4 mps 685 mmHg 88%
    04:00 +8°C° 0 mm 4 mps 685 mmHg 90%
    05:00 +7°C° 0 mm 5 mps 684 mmHg 92%
    06:00 +8°C° 0 mm 5 mps 685 mmHg 87%
    07:00 +9°C° 0 mm 6 mps 685 mmHg 83%
    08:00 +9°C° 0 mm 6 mps 686 mmHg 79%
    09:00 +10°C° 0 mm 7 mps 686 mmHg 73%
    10:00 +11°C° 0 mm 7 mps 686 mmHg 68%
    11:00 +12°C° 0 mm 7 mps 686 mmHg 62%
    12:00 +14°C° 0 mm 7 mps 686 mmHg 58%
    13:00 +15°C° 0 mm 7 mps 685 mmHg 54%
    14:00 +16°C° 0 mm 7 mps 685 mmHg 50%
    15:00 +15°C° 0 mm 6 mps 684 mmHg 51%
    16:00 +15°C° 0 mm 6 mps 684 mmHg 51%
    17:00 +14°C° 0 mm 6 mps 684 mmHg 52%
    18:00 +13°C° 0 mm 5 mps 684 mmHg 56%
    19:00 +12°C° 0 mm 4 mps 684 mmHg 61%
    20:00 +11°C° 0 mm 4 mps 684 mmHg 66%
    21:00 +10°C° 0 mm 4 mps 684 mmHg 68%
    22:00 +10°C° 0 mm 3 mps 685 mmHg 70%
    23:00 +10°C° 0 mm 3 mps 685 mmHg 73%

    Day after tomorrow, 19 July, Thursday

    Time Temperature Precipitation Wind Pressure Humidity
    00:00 +9°C° 0 mm 3 mps 685 mmHg 76%
    01:00 +9°C° 0 mm 3 mps 684 mmHg 78%
    02:00 +8°C° 0 mm 3 mps 684 mmHg 81%
    03:00 +8°C° 0 mm 3 mps 684 mmHg 83%
    04:00 +8°C° 0 mm 3 mps 684 mmHg 84%
    05:00 +7°C° 0 mm 3 mps 683 mmHg 86%
    06:00 +7°C° 0 mm 4 mps 684 mmHg 84%
    07:00 +8°C° 0 mm 5 mps 684 mmHg 83%
    08:00 +8°C° 0 mm 5 mps 685 mmHg 82%
    09:00 +10°C° 0 mm 6 mps 685 mmHg 75%
    10:00 +11°C° 0 mm 6 mps 685 mmHg 67%
    11:00 +14°C° 0 mm 6 mps 686 mmHg 60%
    12:00 +15°C° 0 mm 6 mps 685 mmHg 57%
    13:00 +15°C° 0 mm 6 mps 684 mmHg 53%
    14:00 +16°C° 0 mm 6 mps 684 mmHg 50%
    15:00 +15°C° 0 mm 6 mps 683 mmHg 51%
    16:00 +15°C° 0 mm 5 mps 683 mmHg 52%
    17:00 +15°C° 0 mm 5 mps 682 mmHg 53%
    18:00 +13°C° 0 mm 5 mps 683 mmHg 58%
    19:00 +12°C° 0 mm 4 mps 683 mmHg 63%
    20:00 +11°C° 0 mm 4 mps 683 mmHg 68%
    21:00 +11°C° 0 mm 4 mps 683 mmHg 70%
    22:00 +10°C° 0 mm 4 mps 683 mmHg 72%
    23:00 +10°C° 0 mm 4 mps 684 mmHg 74%

    20 July, Friday

    Time Temperature Precipitation Wind Pressure Humidity
    00:00 +8°C° 0 mm 4 mps 683 mmHg 76%
    01:00 +9°C° 0 mm 3 mps 683 mmHg 78%
    02:00 +8°C° 0 mm 3 mps 683 mmHg 80%
    03:00 +8°C° 0 mm 3 mps 682 mmHg 81%
    04:00 +8°C° 0 mm 3 mps 682 mmHg 83%
    05:00 +8°C° 0 mm 3 mps 682 mmHg 84%
    06:00 +7°C° 0 mm 4 mps 683 mmHg 81%
    07:00 +8°C° 0 mm 4 mps 683 mmHg 79%
    08:00 +10°C° 0 mm 4 mps 684 mmHg 76%
    09:00 +12°C° 0 mm 5 mps 684 mmHg 68%
    10:00 +14°C° 0 mm 5 mps 684 mmHg 60%
    11:00 +16°C° 0 mm 5 mps 685 mmHg 52%
    12:00 +17°C° 0 mm 5 mps 684 mmHg 48%
    13:00 +19°C° 0 mm 4 mps 683 mmHg 44%
    14:00 +20°C° 0 mm 4 mps 683 mmHg 40%
    15:00 +20°C° 0 mm 4 mps 682 mmHg 42%
    16:00 +19°C° 0 mm 4 mps 682 mmHg 43%
    17:00 +19°C° 0 mm 4 mps 682 mmHg 44%
    18:00 +17°C° 0 mm 4 mps 682 mmHg 50%
    19:00 +15°C° 0 mm 4 mps 682 mmHg 56%
    20:00 +14°C° 0 mm 4 mps 682 mmHg 63%
    21:00 +13°C° 0 mm 4 mps 682 mmHg 66%
    22:00 +13°C° 0 mm 4 mps 683 mmHg 68%
    23:00 +12°C° 0 mm 4 mps 683 mmHg 71%

    21 July, Saturday

    Time Temperature Precipitation Wind Pressure Humidity
    00:00 +12°C° 0 mm 4 mps 682 mmHg 74%
    01:00 +11°C° 0 mm 4 mps 682 mmHg 78%
    02:00 +11°C° 0 mm 3 mps 682 mmHg 81%
    03:00 +10°C° 0 mm 3 mps 682 mmHg 83%
    04:00 +10°C° 0 mm 3 mps 682 mmHg 85%
    05:00 +10°C° 0 mm 3 mps 682 mmHg 88%
    06:00 +10°C° 0 mm 3 mps 682 mmHg 84%
    07:00 +11°C° 0 mm 4 mps 683 mmHg 80%
    08:00 +11°C° 0 mm 4 mps 684 mmHg 76%
    09:00 +14°C° 0 mm 4 mps 684 mmHg 67%
    10:00 +17°C° 0 mm 4 mps 684 mmHg 58%
    11:00 +19°C° 0 mm 5 mps 685 mmHg 49%
    12:00 +20°C° 0 mm 4 mps 684 mmHg 44%
    13:00 +21°C° 0 mm 4 mps 684 mmHg 39%
    14:00 +22°C° 0 mm 4 mps 683 mmHg 34%
    15:00 +22°C° 0 mm 4 mps 683 mmHg 35%
    16:00 +22°C° 0 mm 4 mps 683 mmHg 35%
    17:00 +21°C° 0 mm 4 mps 683 mmHg 36%
    18:00 +20°C° 0 mm 4 mps 683 mmHg 41%
    19:00 +18°C° 0 mm 4 mps 683 mmHg 47%
    20:00 +17°C° 0 mm 4 mps 683 mmHg 53%
    21:00 +15°C° 0 mm 4 mps 683 mmHg 58%
    22:00 +15°C° 0 mm 5 mps 684 mmHg 63%
    23:00 +14°C° 0 mm 5 mps 684 mmHg 68%

    22 July, Sunday

    Time Temperature Precipitation Wind Pressure Humidity
    00:00 +14°C° 0 mm 4 mps 684 mmHg 72%
    01:00 +13°C° 0 mm 4 mps 683 mmHg 75%
    02:00 +12°C° 0 mm 4 mps 683 mmHg 79%
    03:00 +12°C° 0 mm 3 mps 683 mmHg 81%
    04:00 +11°C° 0 mm 3 mps 683 mmHg 83%
    05:00 +11°C° 0 mm 3 mps 683 mmHg 85%
    06:00 +11°C° 0 mm 4 mps 684 mmHg 81%
    07:00 +12°C° 0 mm 4 mps 684 mmHg 77%
    08:00 +13°C° 0 mm 5 mps 685 mmHg 73%
    09:00 +15°C° 0 mm 5 mps 685 mmHg 61%
    10:00 +17°C° 0 mm 5 mps 685 mmHg 50%
    11:00 +20°C° 0 mm 6 mps 686 mmHg 38%
    12:00 +21°C° 0 mm 6 mps 685 mmHg 35%
    13:00 +22°C° 0 mm 5 mps 685 mmHg 31%
    14:00 +23°C° 0 mm 5 mps 684 mmHg 28%
    15:00 +23°C° 0 mm 5 mps 684 mmHg 29%
    16:00 +22°C° 0 mm 5 mps 683 mmHg 31%
    17:00 +22°C° 0 mm 5 mps 683 mmHg 33%
    18:00 +20°C° 0 mm 5 mps 683 mmHg 39%
    19:00 +19°C° 0 mm 5 mps 683 mmHg 44%
    20:00 +17°C° 0 mm 4 mps 684 mmHg 50%
    21:00 +15°C° 0 mm 4 mps 684 mmHg 55%
    22:00 +15°C° 0 mm 4 mps 684 mmHg 59%
    23:00 +14°C° 0 mm 4 mps 684 mmHg 64%
    Show more